Flag for Brazil Weather past 2 weeks in São Luis, Maranhão, Brazil

81 °F


Feels Like: 85 °F
Forecast: N/A
Wind: 13 mph from Northeast

Location: Sao Luiz Aeroporto

Current Time: Nov 25, 2015 at 8:47:55 PM

Latest Report: Nov 25, 2015 at 8:00 PM

Visibility: 10 mi

Pressure: 29.86 "Hg

Humidity: 74%

Dew point: 72 °F

Location of São LuisLocation

Historic Weather in São Luis — Graph


São Luis temperature yesterday

Maximum temperature yesterday: 90 °F (at 1:00 PM)
Minimum temperature yesterday: 81 °F (at 12:00 AM)
Average temperature yesterday: 84 °F

Past Weeks' High & Low Weather Summary

High91 °F (Nov 13, 2:00 PM)79% (Nov 11, 12:00 AM)29.95 "Hg (Nov 11, 12:00 AM)
Low79 °F (Nov 11, 12:00 AM)43% (Nov 15, 2:00 PM)29.68 "Hg (Nov 18, 4:00 PM)
Average83 °F65%29.82 "Hg
* Reported Nov 10 8:00 PM — Nov 25 8:00 PM, São Luis, Weather by CustomWeather, © 2015

Note: Actual official high and low records may vary slightly from our data, if they occured in-between our weather recording intervals... More about our weather records


São Luis weather history for previous 24 hours

Time TempWeatherWind HumidityBarometerVisibility
8:00 PM
Wed, Nov 25
81 °FClear.13 mph74%29.86 "Hg10 mi
7:00 PM82 °FClear.12 mph70%29.80 "Hg10 mi
6:00 PM82 °FPassing clouds.15 mph66%29.80 "HgN/A
5:00 PM84 °FPassing clouds.21 mph62%29.80 "HgN/A
4:00 PM88 °FScattered clouds.15 mph55%29.77 "HgN/A
3:00 PM90 °FScattered clouds.12 mph49%29.80 "HgN/A
2:00 PM90 °FScattered clouds.16 mph49%29.83 "HgN/A
1:00 PM90 °FScattered clouds.15 mph49%29.83 "HgN/A
12:00 PM90 °FScattered clouds.14 mph52%29.89 "HgN/A
11:00 AM88 °FScattered clouds.13 mph52%29.89 "HgN/A
10:00 AM88 °FPartly sunny.16 mph55%29.89 "HgN/A
9:00 AM86 °FScattered clouds.15 mph59%29.89 "HgN/A
8:00 AM84 °FScattered clouds.14 mph62%29.89 "HgN/A
7:00 AM81 °FPartly sunny.7 mph74%29.86 "HgN/A
6:00 AM81 °FScattered clouds.7 mph74%29.83 "HgN/A
5:00 AM81 °FClear.8 mph74%29.83 "Hg10 mi
4:00 AM81 °FClear.8 mph74%29.80 "Hg10 mi
3:00 AM81 °FClear.8 mph74%29.80 "Hg10 mi
2:00 AM81 °FClear.10 mph74%29.80 "Hg10 mi
1:00 AM81 °FClear.8 mph74%29.83 "Hg10 mi
12:00 AM81 °FClear.7 mph74%29.83 "Hg10 mi
11:00 PM
Tue, Nov 24
81 °FClear.8 mph74%29.83 "Hg10 mi
10:00 PM81 °FClear.7 mph74%29.83 "Hg10 mi
9:00 PM81 °FClear.7 mph74%29.83 "Hg10 mi
8:00 PM82 °FClear.7 mph70%29.83 "Hg10 mi
Weather by CustomWeather, © 2015

See weather overviewHow to use our weather pages